EW3246 Weather Reports


time (UTC)temp
C
wind
direction
speed
KPH
gust
KPH
rain 1hr
cm
rain 24hr
cm
rain mn
cm
humidity
%
barometer
mb
20260504151010 18 119 14.5 22.5 0.00 0.00 0.00 48 1014.8
20260504150602 18 95 9.7 20.9 0.00 0.00 0.00 52 1014.9
20260504141010 16 49 3.2 9.7 0.00 0.00 0.00 63 1014.7
20260504140556 15 49 3.2 9.7 0.00 0.00 0.00 60 1014.7
20260504140105 15 49 1.6 9.7 0.00 0.00 0.00 64 1014.7
20260504130557 11 49 0.0 4.8 0.00 0.00 0.00 73 1014.9
20260504120106 5 49 0.0 0.0 0.00 0.00 0.00 94 1014.7
20260504110530 3 49 0.0 0.0 0.00 0.00 0.00 94 1014.7
20260504100524 3 49 0.0 0.0 0.00 0.00 0.00 93 1014.6
20260504081548 3 49 0.0 0.0 0.00 0.00 0.00 91 1014.6
20260504081029 3 49 0.0 0.0 0.00 0.00 0.00 91 1014.6
20260504080508 3 49 0.0 0.0 0.00 0.00 0.00 91 1014.6
20260504050512 6 49 0.0 0.0 0.00 0.00 0.00 84 1014.9
20260504045511 6 49 0.0 0.0 0.00 0.00 0.00 82 1014.9
20260504045052 6 49 0.0 0.0 0.00 0.00 0.00 81 1014.9
20260504044603 6 49 0.0 0.0 0.00 0.00 0.00 82 1014.8
20260504044038 6 49 0.0 0.0 0.00 0.00 0.00 82 1014.8
20260504043520 6 49 0.0 0.0 0.00 0.00 0.00 81 1014.8
20260504043033 6 49 0.0 0.0 0.00 0.00 0.00 81 1014.8
20260504042518 6 49 0.0 0.0 0.00 0.00 0.00 81 1014.9
20260504042053 6 49 0.0 0.0 0.00 0.00 0.00 81 1015.0
20260504041600 6 49 0.0 0.0 0.00 0.00 0.00 80 1015.1
20260504041042 7 49 0.0 0.0 0.00 0.00 0.00 80 1014.9
20260504040529 7 49 0.0 0.0 0.00 0.00 0.00 79 1014.8
20260504040034 7 49 0.0 4.8 0.00 0.00 0.00 79 1014.9
20260504035602 7 49 0.0 4.8 0.00 0.00 0.00 78 1014.7
20260504035048 7 49 0.0 3.2 0.00 0.00 0.00 76 1014.7
20260504034504 7 49 0.0 0.0 0.00 0.00 0.00 74 1014.7
20260504034047 7 49 0.0 0.0 0.00 0.00 0.00 73 1014.6
20260504033536 7 49 0.0 0.0 0.00 0.00 0.00 73 1014.7
20260504033025 7 49 0.0 0.0 0.00 0.00 0.00 74 1014.6
20260504032602 7 49 0.0 0.0 0.00 0.00 0.00 74 1014.7
20260504032049 8 49 0.0 0.0 0.00 0.00 0.00 75 1014.7
20260504031530 8 49 0.0 0.0 0.00 0.00 0.00 74 1014.8
20260504031010 8 49 0.0 0.0 0.00 0.00 0.00 74 1014.8
20260504030554 8 49 0.0 0.0 0.00 0.00 0.00 74 1015.0
20260504030004 8 49 0.0 0.0 0.00 0.00 0.00 73 1014.9
20260504025552 8 49 0.0 0.0 0.00 0.00 0.00 72 1014.9
20260504025029 8 49 0.0 0.0 0.00 0.00 0.00 72 1014.8
20260504024540 8 49 0.0 0.0 0.00 0.00 0.00 69 1014.7
20260504024029 9 49 0.0 0.0 0.00 0.00 0.00 68 1014.7
20260504023603 9 49 0.0 0.0 0.00 0.00 0.00 68 1014.6
20260504023012 10 49 0.0 3.2 0.00 0.00 0.00 67 1014.7
20260504022601 10 49 0.0 3.2 0.00 0.00 0.00 67 1014.7
20260504022042 10 49 0.0 0.0 0.00 0.00 0.00 66 1014.7
20260504021608 10 49 0.0 0.0 0.00 0.00 0.00 63 1014.7
20260504021048 10 49 0.0 0.0 0.00 0.00 0.00 64 1014.7
20260504020534 10 49 0.0 0.0 0.00 0.00 0.00 62 1014.6
20260504020048 10 49 0.0 1.6 0.00 0.00 0.00 64 1014.3
20260504015535 10 49 0.0 3.2 0.00 0.00 0.00 63 1014.3
20260504015009 11 49 0.0 1.6 0.00 0.00 0.00 61 1014.2
20260504014529 11 49 0.0 1.6 0.00 0.00 0.00 58 1014.1
20260504014001 11 49 0.0 3.2 0.00 0.00 0.00 56 1013.9
20260504013552 12 49 1.6 3.2 0.00 0.00 0.00 60 1013.9
20260504013101 12 49 0.0 1.6 0.00 0.00 0.00 58 1013.8
20260504012543 12 49 0.0 1.6 0.00 0.00 0.00 53 1013.7
20260504012025 13 49 0.0 0.0 0.00 0.00 0.00 49 1013.7
20260504011533 13 49 0.0 0.0 0.00 0.00 0.00 50 1013.6
20260504011010 13 49 0.0 1.6 0.00 0.00 0.00 48 1013.6
20260504010558 13 49 0.0 1.6 0.00 0.00 0.00 48 1013.5
20260504010043 13 49 0.0 1.6 0.00 0.00 0.00 48 1013.5
20260504005520 13 49 0.0 3.2 0.00 0.00 0.00 47 1013.5
20260504005101 14 49 0.0 3.2 0.00 0.00 0.00 46 1013.6
20260504004548 14 49 0.0 3.2 0.00 0.00 0.00 46 1013.5
20260504004029 14 49 0.0 3.2 0.00 0.00 0.00 45 1013.5
20260504003511 15 49 1.6 3.2 0.00 0.00 0.00 44 1013.5
20260504003040 15 49 0.0 1.6 0.00 0.00 0.00 44 1013.6
20260504002502 15 49 0.0 1.6 0.00 0.00 0.00 43 1013.6
20260504002050 15 49 0.0 1.6 0.00 0.00 0.00 42 1013.5
20260504001623 15 49 0.0 1.6 0.00 0.00 0.00 42 1013.5
20260504001049 15 49 0.0 1.6 0.00 0.00 0.00 41 1013.4
20260504000534 16 49 0.0 0.0 0.00 0.00 0.00 41 1013.4
20260504000043 16 49 0.0 4.8 0.00 0.00 0.00 40 1013.3
20260503235538 16 49 0.0 6.4 0.00 0.00 0.00 39 1013.3
20260503235020 16 49 0.0 6.4 0.00 0.00 0.00 40 1013.3
20260503234545 17 49 1.6 6.4 0.00 0.00 0.00 37 1013.2
20260503234025 17 49 1.6 8.0 0.00 0.00 0.00 37 1013.2
20260503233601 17 49 1.6 8.0 0.00 0.00 0.00 36 1013.2
20260503233022 17 49 1.6 9.7 0.00 0.00 0.00 34 1013.2
20260503232558 17 49 1.6 9.7 0.00 0.00 0.00 34 1013.1
20260503232047 17 49 1.6 6.4 0.00 0.00 0.00 34 1013.1
20260503231553 17 49 1.6 8.0 0.00 0.00 0.00 35 1013.1
20260503231035 18 49 3.2 8.0 0.00 0.00 0.00 33 1013.2
20260503230527 18 49 3.2 6.4 0.00 0.00 0.00 35 1013.3
20260503230037 18 49 1.6 9.7 0.00 0.00 0.00 34 1013.2
20260503225504 18 49 3.2 9.7 0.00 0.00 0.00 35 1013.2
20260503225052 18 49 1.6 6.4 0.00 0.00 0.00 34 1013.3
20260503224537 18 49 4.8 11.3 0.00 0.00 0.00 32 1013.3
20260503224012 18 49 6.4 11.3 0.00 0.00 0.00 32 1013.3
20260503223600 18 48 3.2 9.7 0.00 0.00 0.00 32 1013.3
20260503223020 18 48 3.2 16.1 0.00 0.00 0.00 33 1013.4
20260503222558 18 48 4.8 19.3 0.00 0.00 0.00 33 1013.5
20260503222041 18 47 6.4 19.3 0.00 0.00 0.00 31 1013.6
20260503221548 18 48 6.4 17.7 0.00 0.00 0.00 32 1013.6
20260503221035 18 60 6.4 16.1 0.00 0.00 0.00 31 1013.5
20260503220509 18 70 6.4 14.5 0.00 0.00 0.00 32 1013.6
20260503220042 18 74 4.8 16.1 0.00 0.00 0.00 32 1013.7
20260503215503 18 93 8.0 16.1 0.00 0.00 0.00 31 1013.8
20260503215053 18 80 9.7 22.5 0.00 0.00 0.00 31 1013.7
20260503214557 18 70 8.0 22.5 0.00 0.00 0.00 31 1013.8
20260503214038 18 49 3.2 16.1 0.00 0.00 0.00 32 1013.7
20260503213516 18 60 1.6 19.3 0.00 0.00 0.00 32 1013.8
20260503213143 18 60 8.0 19.3 0.00 0.00 0.00 32 1013.8
20260503212552 18 74 4.8 16.1 0.00 0.00 0.00 31 1013.8
20260503212023 18 79 9.7 20.9 0.00 0.00 0.00 31 1013.7
20260503211505 18 97 8.0 19.3 0.00 0.00 0.00 32 1013.9
20260503211052 19 76 8.0 14.5 0.00 0.00 0.00 32 1014.1
20260503210532 18 89 4.8 17.7 0.00 0.00 0.00 30 1014.0
20260503210054 18 88 6.4 17.7 0.00 0.00 0.00 30 1014.1
20260503205527 18 79 4.8 14.5 0.00 0.00 0.00 31 1014.1
20260503205008 18 74 1.6 16.1 0.00 0.00 0.00 35 1014.1
20260503204527 18 74 3.2 17.7 0.00 0.00 0.00 31 1014.1
20260503204006 18 81 4.8 16.1 0.00 0.00 0.00 34 1014.1
20260503203553 18 71 8.0 17.7 0.00 0.00 0.00 30 1014.2
20260503203107 18 72 11.3 20.9 0.00 0.00 0.00 29 1014.2
20260503202555 18 108 6.4 20.9 0.00 0.00 0.00 28 1014.3
20260503202041 18 93 6.4 17.7 0.00 0.00 0.00 31 1014.3
20260503201553 18 93 6.4 17.7 0.00 0.00 0.00 30 1014.4
20260503201040 18 112 6.4 14.5 0.00 0.00 0.00 30 1014.7
20260503200532 18 112 4.8 19.3 0.00 0.00 0.00 31 1014.7
20260503200049 18 112 6.4 14.5 0.00 0.00 0.00 37 1014.9
20260503195532 18 106 6.4 16.1 0.00 0.00 0.00 33 1014.9
20260503195020 18 120 3.2 17.7 0.00 0.00 0.00 35 1014.9
20260503194506 17 122 8.0 17.7 0.00 0.00 0.00 32 1014.9
20260503194058 17 130 6.4 14.5 0.00 0.00 0.00 33 1015.0
20260503193541 17 132 4.8 17.7 0.00 0.00 0.00 34 1015.1
20260503193035 17 117 8.0 20.9 0.00 0.00 0.00 33 1015.2
20260503192510 17 91 11.3 20.9 0.00 0.00 0.00 33 1015.2
20260503192058 17 68 4.8 22.5 0.00 0.00 0.00 35 1015.2
20260503191518 17 68 14.5 22.5 0.00 0.00 0.00 34 1015.3
20260503191057 17 101 11.3 22.5 0.00 0.00 0.00 35 1015.2
20260503190545 17 114 4.8 22.5 0.00 0.00 0.00 33 1015.4
20260503190037 17 108 8.0 19.3 0.00 0.00 0.00 31 1015.4
20260503185528 17 118 8.0 22.5 0.00 0.00 0.00 32 1015.4
20260503185003 17 92 14.5 22.5 0.00 0.00 0.00 32 1015.6
20260503184610 17 139 8.0 17.7 0.00 0.00 0.00 29 1015.7
20260503184047 16 90 6.4 22.5 0.00 0.00 0.00 32 1015.6
20260503183533 16 94 12.9 22.5 0.00 0.00 0.00 32 1015.7
20260503183039 16 104 9.7 17.7 0.00 0.00 0.00 34 1015.9
20260503182512 16 125 9.7 17.7 0.00 0.00 0.00 34 1016.0
20260503182100 16 103 6.4 20.9 0.00 0.00 0.00 35 1016.1
20260503181520 16 105 11.3 20.9 0.00 0.00 0.00 34 1016.2
20260503181058 16 108 11.3 29.0 0.00 0.00 0.00 34 1016.2
20260503180548 16 121 16.1 29.0 0.00 0.00 0.00 33 1016.2
20260503180008 16 110 3.2 17.7 0.00 0.00 0.00 37 1016.2
20260503175549 16 111 9.7 19.3 0.00 0.00 0.00 37 1016.3
20260503175042 16 128 9.7 22.5 0.00 0.00 0.00 34 1016.4
20260503174555 15 67 14.5 22.5 0.00 0.00 0.00 35 1016.3
20260503174036 15 129 1.6 19.3 0.00 0.00 0.00 35 1016.3
20260503173522 15 101 8.0 16.1 0.00 0.00 0.00 34 1016.4
20260503173033 15 78 6.4 22.5 0.00 0.00 0.00 35 1016.4
20260503172504 15 96 9.7 22.5 0.00 0.00 0.00 33 1016.6
20260503172054 15 100 1.6 22.5 0.00 0.00 0.00 39 1016.4
20260503171501 15 95 11.3 22.5 0.00 0.00 0.00 36 1016.8
20260503171048 14 87 11.3 19.3 0.00 0.00 0.00 37 1016.7
20260503170534 14 68 9.7 20.9 0.00 0.00 0.00 36 1016.8